[[{"header":{"parameterUnit":"m.s-1","parameterCategory":1,"la1":30.2991,"la2":30.254,"lo1":-89.0895,"lo2":-89.0444,"dy":0.0017,"dx":0.0017,"nx":28,"ny":28,"refTime":"2024-02-13T03:00:00:Z","depth":0,"parameterNumber":2,"parameterNumberName":"U-component_of_WINDS"},"data":[0,0,0,0,0,0,0,0,0,0,0,0,0,0,0,0,0,0,0,0,0,0,0,0,0,0,0,0,0,0,0,0,0,0,0,0,0,0,0,0,0,0,0,0,0,0,0,0,0,0,0,0,0,0,0,0,0,0,2.2933,2.2933,0,2.2991,2.2991,2.2992,2.2988,2.2987,2.2986,2.2985,2.3043,2.3045,2.3048,0,0,0,0,0,0,0,0,0,0,0,0,0,2.2819,2.2821,2.2933,2.2933,2.2934,2.299,2.2991,2.2992,2.2988,2.2987,2.2986,2.2985,2.3042,2.3045,2.3048,0,0,0,0,0,0,0,0,0,0,0,0,0,2.2872,2.2822,2.2933,2.2939,2.294,2.299,2.2991,2.2992,2.2988,2.2987,2.2986,2.2985,2.3041,2.3045,2.3048,2.3095,0,0,2.3059,2.306,0,0,0,0,0,0,0,0,2.2869,2.2876,2.2937,2.2939,2.294,2.2981,2.2972,2.3027,2.2989,2.297,2.2985,2.2984,2.3023,2.3028,2.3042,2.3098,2.31,2.3059,2.3061,2.3063,2.3064,0,0,0,0,0,0,0,2.2865,2.2873,2.2956,2.2938,2.294,2.2939,2.2945,2.2983,2.3003,2.2971,2.2971,2.2978,2.3024,2.3038,2.3043,2.3101,2.3059,2.3062,2.3064,2.3066,2.3201,2.3202,0,0,0,0,0,0,2.286,2.287,2.2954,2.2957,2.2901,2.2942,2.2949,2.2969,2.3003,2.3006,2.2979,2.2978,2.3033,2.3039,2.3045,2.3103,2.3063,2.3066,2.3068,2.3199,2.3201,2.3203,0,0,0,0,0,0,2.2858,2.2868,2.2951,2.2914,2.2925,2.2946,2.2968,2.2971,2.2985,2.3009,2.3012,2.2991,2.3032,2.304,2.3083,2.3105,2.3068,2.3071,2.3198,2.32,2.3202,2.322,0,0,0,0,0,0,2.2855,2.2867,2.2885,2.2914,2.2927,2.2989,2.2969,2.2973,2.2992,2.299,2.302,2.3024,2.3032,2.3078,2.3087,2.3109,2.3073,2.3196,2.3199,2.3201,2.3217,2.3222,2.3226,0,0,0,0,0,2.285,2.2886,2.2886,2.2896,2.2949,2.299,2.2997,2.3006,2.2993,2.3012,2.3027,2.3023,2.3102,2.3083,2.3092,2.3116,2.3194,2.3198,2.3201,2.3215,2.3221,2.3226,0,0,0,0,0,0,2.2858,2.289,2.289,2.2936,2.2961,2.2989,2.3012,2.3012,2.3039,2.3037,2.3047,2.3054,2.3097,2.3111,2.3089,2.3165,2.3146,2.3152,2.3154,2.316,2.3164,2.316,2.3076,0,0,0,0,0,2.2865,2.2895,2.2922,2.2961,2.2973,2.2991,2.3009,2.3014,2.3039,2.3049,2.3067,2.3092,2.3122,2.3142,2.3171,2.322,2.3227,2.3241,2.3246,2.3249,2.3254,2.3282,2.3289,2.3214,2.3214,2.3214,0,0,2.2879,2.2901,2.292,2.2963,2.2982,2.3014,2.2999,2.3033,2.3056,2.3054,2.3096,2.3111,2.3139,2.3185,2.3207,2.3198,2.3277,2.3254,2.3257,2.3259,2.3286,2.3293,2.33,2.3216,2.3216,2.3215,0,0,2.2922,2.2942,2.2977,2.2997,2.3027,2.3039,2.3048,2.3077,2.3087,2.313,2.3129,2.3157,2.3209,2.323,2.3247,2.3301,2.3298,2.331,2.3334,2.3361,2.3367,2.3373,2.3393,2.34,2.3314,2.3314,2.3314,0,2.2937,2.2984,2.2995,2.3029,2.3049,2.305,2.3086,2.3104,2.3142,2.3156,2.3146,2.3213,2.3231,2.3283,2.3297,2.3311,2.3321,2.3306,2.3366,2.3371,2.3376,2.3395,2.3403,2.3316,2.3316,2.3315,2.3315,0,2.3001,2.3034,2.3059,2.3096,2.3119,2.3154,2.317,2.3191,2.3196,2.3209,2.3253,2.3276,2.3311,2.3324,2.3327,2.3377,2.3371,2.3364,2.3345,2.3385,2.3403,2.341,2.3318,2.3317,2.3317,2.3316,0,0,2.3048,2.3093,2.3102,2.312,2.3154,2.318,2.3216,2.325,2.3269,2.3296,2.3326,2.3372,2.3366,2.3385,2.3391,2.3416,2.3458,2.3405,2.3406,2.3415,2.3515,2.3521,2.3529,2.3457,2.3459,2.346,2.3513,0,2.3094,2.3158,2.317,2.3225,2.3256,2.3259,2.329,2.3315,2.3329,2.3358,2.3373,2.3406,2.3395,2.3407,2.3431,2.3448,2.3478,2.3444,2.3486,2.3487,2.3478,2.3538,2.3544,2.3593,2.352,2.3522,2.3522,0,2.3157,2.3186,2.3245,2.3277,2.3291,2.3319,2.3353,2.338,2.3409,2.3418,2.3441,2.3445,2.3483,2.3464,2.3517,2.3493,2.3512,2.3523,2.3525,2.3529,2.3507,2.3544,2.3609,2.3616,2.3534,2.3533,2.3532,0,2.3186,2.324,2.3283,2.3298,2.3337,2.3356,2.3373,2.3401,2.3422,2.3452,2.3466,2.3499,2.3517,2.3544,2.3557,2.3542,2.361,2.3591,2.3618,2.3618,2.3631,2.363,2.37,2.3643,2.3643,2.3643,2.3643,0,2.3236,2.3272,2.3297,2.3323,2.3364,2.3378,2.3418,2.3435,2.346,2.3489,2.3494,2.3522,2.3538,2.3569,2.358,2.3622,2.3631,2.3639,2.3641,2.3638,2.3637,2.365,2.3647,2.3645,2.3645,2.3644,2.3644,0,2.3275,2.3293,2.334,2.3373,2.3382,2.3411,2.344,2.3466,2.3481,2.3519,2.3528,2.3552,2.3588,2.3605,2.3649,2.3657,2.3706,2.3706,2.3696,2.3697,2.3723,2.372,2.3803,2.3815,2.375,2.3751,2.3751,0,2.3306,2.3334,2.3371,2.3392,2.3409,2.3443,2.3465,2.348,2.3502,2.3539,2.3561,2.3598,2.3628,2.3686,2.3707,2.3742,2.3743,2.377,2.3748,2.3745,2.3744,2.3742,2.3745,2.3773,2.3774,2.3774,2.3775,0,2.3359,2.3367,2.3399,2.3434,2.3461,2.3489,2.3517,2.3534,2.3554,2.3579,2.3617,2.3641,2.3688,2.3725,2.3761,2.3779,2.378,2.3782,2.379,2.3787,2.378,2.3785,2.3707,2.3779,2.3779,2.3778,2.3778,2.3778,2.3395,2.3421,2.3451,2.3487,2.351,2.3537,2.3563,2.3582,2.3614,2.3654,2.3661,2.3702,2.3732,2.3782,2.3801,2.3833,2.3827,2.3838,2.3841,2.3844,2.3846,2.3776,2.384,2.384,2.384,2.384,2.384,0,2.3449,2.3469,2.3502,2.3542,2.357,2.357,2.3602,2.3626,2.3662,2.369,2.372,2.3765,2.3801,2.3826,2.3863,2.3885,2.3886,2.3894,2.3892,2.3897,2.3849,2.3838,2.3892,2.3892,2.3892,2.3892,2.3892,2.3892,2.348,2.3524,2.3536,2.3592,2.3612,2.3653,2.3671,2.3696,2.3719,2.3768,2.3799,2.3816,2.3843,2.3882,2.3916,2.3923,2.3936,2.3944,2.395,2.3905,2.39,2.3894,2.3885,2.3947,2.3947,2.3995,2.3996,2.3996]},{"header":{"parameterUnit":"m.s-1","parameterCategory":1,"la1":30.2991,"la2":30.254,"lo1":-89.0895,"lo2":-89.0444,"dy":0.0017,"dx":0.0017,"nx":28,"ny":28,"refTime":"2024-02-13T03:00:00:Z","depth":0,"parameterNumber":3,"parameterNumberName":"V-component_of_WINDS"},"data":[0,0,0,0,0,0,0,0,0,0,0,0,0,0,0,0,0,0,0,0,0,0,0,0,0,0,0,0,0,0,0,0,0,0,0,0,0,0,0,0,0,0,0,0,0,0,0,0,0,0,0,0,0,0,0,0,0,0,-6.2898,-6.2899,0,-6.3047,-6.3048,-6.305,-6.3029,-6.3026,-6.3024,-6.3021,-6.3169,-6.3175,-6.3181,0,0,0,0,0,0,0,0,0,0,0,0,0,-6.2589,-6.2595,-6.2897,-6.2899,-6.2901,-6.3046,-6.3048,-6.305,-6.3029,-6.3026,-6.3023,-6.302,-6.3167,-6.3174,-6.3181,0,0,0,0,0,0,0,0,0,0,0,0,0,-6.2729,-6.2597,-6.2897,-6.2908,-6.2911,-6.3046,-6.3049,-6.3051,-6.303,-6.3026,-6.3022,-6.3019,-6.3164,-6.3173,-6.3183,-6.3315,0,0,-6.3211,-6.3215,0,0,0,0,0,0,0,0,-6.2721,-6.2741,-6.2905,-6.2908,-6.2911,-6.3015,-6.2994,-6.3139,-6.3031,-6.2984,-6.3021,-6.3017,-6.312,-6.3133,-6.3169,-6.3322,-6.3328,-6.3212,-6.3218,-6.3222,-6.3224,0,0,0,0,0,0,0,-6.2712,-6.2734,-6.2956,-6.2907,-6.2911,-6.2904,-6.292,-6.3021,-6.3071,-6.2988,-6.2987,-6.3005,-6.3121,-6.316,-6.3172,-6.333,-6.3212,-6.322,-6.3226,-6.3229,-6.3599,-6.3603,0,0,0,0,0,0,-6.27,-6.2726,-6.2952,-6.2961,-6.2805,-6.2913,-6.293,-6.2985,-6.307,-6.308,-6.3008,-6.3003,-6.3146,-6.3161,-6.3177,-6.3338,-6.3222,-6.323,-6.3236,-6.3595,-6.36,-6.3604,0,0,0,0,0,0,-6.2693,-6.272,-6.2946,-6.2843,-6.2872,-6.2922,-6.2984,-6.299,-6.3029,-6.3085,-6.3094,-6.3039,-6.3144,-6.3164,-6.3281,-6.3343,-6.3235,-6.3243,-6.359,-6.3596,-6.3602,-6.366,0,0,0,0,0,0,-6.2684,-6.2718,-6.277,-6.2845,-6.2877,-6.3049,-6.2988,-6.2996,-6.3046,-6.3041,-6.3117,-6.3125,-6.3142,-6.3267,-6.3291,-6.3354,-6.325,-6.3584,-6.3593,-6.36,-6.3653,-6.3668,-6.3681,0,0,0,0,0,-6.2674,-6.2779,-6.2773,-6.28,-6.2943,-6.3052,-6.3071,-6.3089,-6.3051,-6.3103,-6.3139,-6.3123,-6.3332,-6.328,-6.3305,-6.3372,-6.3581,-6.359,-6.3599,-6.3647,-6.3665,-6.368,0,0,0,0,0,0,-6.2708,-6.2789,-6.2783,-6.2916,-6.2978,-6.3048,-6.3115,-6.3108,-6.318,-6.3173,-6.3191,-6.3208,-6.3327,-6.3361,-6.3301,-6.3505,-6.3451,-6.3466,-6.3478,-6.3496,-6.3509,-6.3498,-6.3258,0,0,0,0,0,-6.2732,-6.2815,-6.2881,-6.2992,-6.3023,-6.3064,-6.3112,-6.3121,-6.3185,-6.321,-6.3255,-6.3316,-6.3396,-6.3448,-6.3524,-6.3658,-6.3674,-6.3717,-6.373,-6.3741,-6.3754,-6.3827,-6.3847,-6.3635,-6.3635,-6.3635,0,0,-6.2781,-6.2835,-6.2886,-6.3,-6.3049,-6.3134,-6.3086,-6.3177,-6.3239,-6.3224,-6.3338,-6.3372,-6.3442,-6.3568,-6.3626,-6.36,-6.3816,-6.3753,-6.3762,-6.3769,-6.3839,-6.3859,-6.3877,-6.3642,-6.3641,-6.364,0,0,-6.2913,-6.2963,-6.3061,-6.3112,-6.3187,-6.3213,-6.3237,-6.3309,-6.3332,-6.3447,-6.3437,-6.351,-6.3647,-6.3697,-6.374,-6.3892,-6.388,-6.3916,-6.3987,-6.4059,-6.4075,-6.409,-6.4144,-6.4163,-6.3929,-6.3929,-6.3929,0,-6.2964,-6.3093,-6.3112,-6.3206,-6.3255,-6.3247,-6.3346,-6.3393,-6.3489,-6.3523,-6.3493,-6.3665,-6.3711,-6.3849,-6.3886,-6.3921,-6.3948,-6.3908,-6.4072,-6.4087,-6.4101,-6.4152,-6.4173,-6.3933,-6.3932,-6.3932,-6.3932,0,-6.3151,-6.324,-6.331,-6.3405,-6.3463,-6.3558,-6.3591,-6.3647,-6.3651,-6.368,-6.3797,-6.3852,-6.3939,-6.3973,-6.3977,-6.4111,-6.4093,-6.4068,-6.4014,-6.4125,-6.4173,-6.4193,-6.3939,-6.3937,-6.3936,-6.3935,0,0,-6.3309,-6.3414,-6.344,-6.3483,-6.3565,-6.3634,-6.3728,-6.3815,-6.3863,-6.3929,-6.4008,-6.4124,-6.4101,-6.415,-6.416,-6.4223,-6.4339,-6.4189,-6.4191,-6.4215,-6.449,-6.4508,-6.4531,-6.4331,-6.4335,-6.4338,-6.4484,0,-6.3449,-6.3619,-6.3639,-6.3789,-6.3871,-6.3865,-6.3947,-6.4005,-6.4035,-6.4108,-6.4139,-6.4221,-6.4185,-6.4215,-6.4276,-6.4312,-6.4394,-6.4302,-6.4404,-6.4407,-6.4387,-6.4556,-6.4576,-6.4711,-6.4503,-6.4506,-6.4509,0,-6.3636,-6.3709,-6.3868,-6.3939,-6.3974,-6.4048,-6.413,-6.42,-6.4266,-6.4283,-6.4338,-6.434,-6.4436,-6.4379,-6.4511,-6.4447,-6.449,-6.4514,-6.4519,-6.4529,-6.4464,-6.4571,-6.4755,-6.4775,-6.4539,-6.4536,-6.4534,0,-6.3735,-6.3873,-6.3986,-6.4023,-6.4109,-6.4161,-6.4199,-6.4262,-6.4313,-6.4383,-6.4417,-6.4497,-6.4541,-6.4602,-6.4625,-6.4581,-6.4756,-6.47,-6.4771,-6.4771,-6.4808,-6.4806,-6.5001,-6.4836,-6.4836,-6.4836,-6.4835,0,-6.389,-6.3987,-6.4032,-6.4102,-6.421,-6.4232,-6.4338,-6.4373,-6.4429,-6.4504,-6.4502,-6.4572,-6.4598,-6.4672,-6.469,-6.4797,-6.4816,-6.4832,-6.4835,-6.4832,-6.483,-6.486,-6.4851,-6.4841,-6.484,-6.4839,-6.4838,0,-6.4019,-6.4053,-6.4176,-6.4248,-6.4268,-6.4345,-6.4406,-6.4472,-6.4501,-6.4596,-6.4619,-6.4664,-6.4751,-6.478,-6.4884,-6.4896,-6.502,-6.5016,-6.4999,-6.4999,-6.5069,-6.5062,-6.5291,-6.5321,-6.5136,-6.5138,-6.5139,0,-6.4115,-6.419,-6.4271,-6.4322,-6.4362,-6.4444,-6.4497,-6.4521,-6.4576,-6.4657,-6.4713,-6.48,-6.487,-6.5009,-6.505,-6.513,-6.5127,-6.5202,-6.5139,-6.5133,-6.5128,-6.5123,-6.513,-6.5213,-6.5215,-6.5217,-6.5218,0,-6.4282,-6.4296,-6.4373,-6.4456,-6.452,-6.4586,-6.465,-6.4691,-6.4725,-6.4786,-6.4876,-6.4931,-6.5038,-6.5124,-6.5206,-6.5243,-6.5236,-6.5237,-6.5258,-6.5255,-6.5242,-6.525,-6.5031,-6.5232,-6.5231,-6.5229,-6.5229,-6.5228,-6.4398,-6.4464,-6.4532,-6.4617,-6.4668,-6.4728,-6.4794,-6.4832,-6.4908,-6.4999,-6.5008,-6.5105,-6.5168,-6.5277,-6.5319,-6.5393,-6.5372,-6.5402,-6.541,-6.5417,-6.5422,-6.5231,-6.5408,-6.5408,-6.5407,-6.5407,-6.5407,0,-6.4565,-6.4608,-6.4687,-6.4777,-6.4845,-6.4834,-6.4904,-6.4961,-6.5047,-6.5107,-6.5177,-6.528,-6.5363,-6.5411,-6.5494,-6.5544,-6.5543,-6.5565,-6.5561,-6.557,-6.5436,-6.541,-6.5565,-6.5565,-6.5565,-6.5565,-6.5565,-6.5565,-6.466,-6.4771,-6.4793,-6.4929,-6.4971,-6.5068,-6.5109,-6.5163,-6.5212,-6.5328,-6.5398,-6.5429,-6.5484,-6.5571,-6.5646,-6.5658,-6.5688,-6.5712,-6.5722,-6.5596,-6.5579,-6.5564,-6.5539,-6.5719,-6.5719,-6.5849,-6.585,-6.5851]}]]